This is the latest recevied weather packets stored in our database for station/object OE5HCE. If no packets are shown the sender has not sent any weather packets the latest 10 day(s).
| Time | Temp. | Humidity | Pressure | Rain* | Wind** | Luminosity | Snow |
|---|---|---|---|---|---|---|---|
| 1777735850 | 26.67° C | 23% | 1020.1 hPa | 0 mm | - | 403 W/m² | - |
| 1777734950 | 27.22° C | 21% | 1020.3 hPa | 0 mm | - | 443 W/m² | - |
| 1777734074 | 26.11° C | 25% | 1020.5 hPa | 0 mm | - | 482 W/m² | - |
| 1777733143 | 26.11° C | 24% | 1020.7 hPa | 0 mm | - | 520 W/m² | - |
| 1777732251 | 26.11° C | 26% | 1020.9 hPa | 0 mm | - | 557 W/m² | - |
| 1777731345 | 26.11° C | 25% | 1021 hPa | 0 mm | - | 591 W/m² | - |
| 1777730446 | 26.67° C | 28% | 1021.2 hPa | 0 mm | - | 626 W/m² | - |
| 1777729537 | 26.67° C | 25% | 1021.3 hPa | 0 mm | - | 656 W/m² | - |
| 1777728632 | 25° C | 29% | 1021.5 hPa | 0 mm | - | 686 W/m² | - |
| 1777727738 | 25° C | 29% | 1021.7 hPa | 0 mm | - | 708 W/m² | - |
| 1777726827 | 25° C | 32% | 1021.9 hPa | 0 mm | - | 724 W/m² | - |
| 1777725924 | 24.44° C | 31% | 1022 hPa | 0 mm | - | 751 W/m² | - |
| 1777725020 | 23.89° C | 31% | 1022.2 hPa | 0 mm | - | 770 W/m² | - |
| 1777724123 | 23.89° C | 34% | 1022.5 hPa | 0 mm | - | 784 W/m² | - |
| 1777723217 | 23.89° C | 33% | 1022.7 hPa | 0 mm | - | 504 W/m² | - |
| 1777722314 | 23.89° C | 33% | 1022.9 hPa | 0 mm | - | 805 W/m² | - |
| 1777721411 | 23.33° C | 35% | 1023.1 hPa | 0 mm | - | 809 W/m² | - |
| 1777720512 | 22.78° C | 37% | 1023.3 hPa | 0 mm | - | 687 W/m² | - |
| 1777719606 | 22.22° C | 37% | 1023.4 hPa | 0 mm | - | 810 W/m² | - |
| 1777718705 | 22.22° C | 39% | 1023.6 hPa | 0 mm | - | 809 W/m² | - |
| 1777717875 | 21.67° C | 44% | 1023.8 hPa | 0 mm | - | 805 W/m² | - |
| 1777716968 | 21.11° C | 45% | 1024 hPa | 0 mm | - | 793 W/m² | - |
| 1777716052 | 20.56° C | 48% | 1024.2 hPa | 0 mm | - | 780 W/m² | - |
| 1777715149 | 20° C | 48% | 1024.3 hPa | 0 mm | - | 765 W/m² | - |
| 1777714245 | 19.44° C | 49% | 1024.6 hPa | 0 mm | - | 747 W/m² | - |
* Rain latest hour (hover to see other rain measurements)
** Current wind speed in m/s (hover to see current wind gust speed)